2022/05/07 23:31:05+0000,-32.15,-46.70,-33.34,-48.71,-54.81,-55.91
2022/05/07 23:31:57+0000,-30.56,-46.74,-33.10,-48.67,-54.75,-55.74
2022/05/07 23:32:49+0000,-31.21,-45.76,-33.35,-48.60,-53.64,-55.88
2022/05/07 23:33:41+0000,-32.27,-46.74,-33.88,-48.22,-55.18,-55.97
2022/05/07 23:34:33+0000,-32.48,-45.89,-33.53,-48.00,-54.62,-55.80
2022/05/07 23:35:25+0000,-31.86,-45.50,-33.06,-48.37,-54.13,-55.78
2022/05/07 23:36:17+0000,-31.05,-41.44,-33.69,-48.70,-54.47,-56.04
2022/05/07 23:37:09+0000,-32.04,-42.12,-33.01,-48.44,-53.87,-55.70
2022/05/07 23:38:01+0000,-32.07,-47.01,-33.83,-48.21,-54.41,-56.01
2022/05/07 23:38:53+0000,-32.19,-45.41,-33.64,-47.00,-53.28,-55.50
2022/05/07 23:39:45+0000,-32.36,-46.51,-32.96,-47.95,-53.92,-56.01
2022/05/07 23:40:37+0000,-29.91,-46.96,-33.17,-47.35,-53.74,-55.84
2022/05/07 23:41:36+0000,-30.39,-46.39,-32.99,-49.16,-54.21,-56.46
2022/05/07 23:42:28+0000,-31.04,-47.07,-33.03,-47.81,-55.47,-56.33
2022/05/07 23:43:20+0000,-29.96,-44.42,-33.01,-48.08,-53.97,-56.33
2022/05/07 23:44:12+0000,-28.81,-42.80,-32.88,-48.59,-54.21,-56.26
2022/05/07 23:45:04+0000,-30.53,-41.80,-33.58,-48.89,-54.50,-56.15
2022/05/07 23:45:56+0000,-31.92,-42.32,-33.18,-47.82,-53.95,-56.10
2022/05/07 23:46:48+0000,-31.60,-43.08,-33.06,-48.43,-53.69,-56.13
2022/05/07 23:47:40+0000,-29.27,-43.12,-33.73,-48.44,-53.90,-56.31
2022/05/07 23:48:32+0000,-31.51,-43.33,-33.24,-47.47,-54.85,-56.44
2022/05/07 23:49:24+0000,-29.76,-44.85,-32.76,-47.59,-53.76,-55.90
2022/05/07 23:50:16+0000,-30.46,-45.15,-33.25,-47.12,-53.76,-55.99
2022/05/07 23:51:14+0000,-31.56,-43.43,-33.16,-47.82,-54.26,-56.02
2022/05/07 23:52:06+0000,-30.53,-43.73,-32.86,-48.02,-54.32,-56.49
2022/05/07 23:52:58+0000,-30.92,-42.05,-32.83,-47.86,-54.18,-56.71
2022/05/07 23:53:50+0000,-31.08,-42.39,-32.39,-48.78,-53.85,-55.91
2022/05/07 23:54:42+0000,-30.69,-43.09,-33.05,-47.63,-54.41,-55.92
2022/05/07 23:55:35+0000,-32.43,-43.18,-32.94,-48.60,-54.54,-55.57
2022/05/07 23:56:27+0000,-30.64,-43.47,-32.78,-48.12,-54.50,-56.30
2022/05/07 23:57:19+0000,-33.45,-41.40,-33.48,-48.43,-54.33,-55.55
2022/05/07 23:58:11+0000,-31.09,-41.89,-33.66,-47.97,-54.54,-55.85
2022/05/07 23:59:03+0000,-31.51,-43.35,-33.04,-48.80,-53.31,-55.69
2022/05/07 23:59:55+0000,-31.45,-43.38,-33.38,-48.85,-53.35,-56.24
2022/05/08 00:00:55+0000,-30.95,-42.37,-34.34,-48.62,-53.02,-55.26
2022/05/08 00:01:56+0000,-29.44,-42.01,-34.03,-47.82,-53.29,-55.52
2022/05/08 00:02:48+0000,-33.31,-41.78,-33.59,-48.83,-53.00,-55.75
2022/05/08 00:03:40+0000,-31.87,-43.78,-33.00,-48.15,-54.25,-56.12
2022/05/08 00:04:32+0000,-32.43,-42.79,-33.60,-48.63,-53.95,-55.79
2022/05/08 00:05:24+0000,-31.37,-42.82,-33.49,-47.33,-54.03,-55.59
2022/05/08 00:06:16+0000,-31.63,-43.32,-33.47,-47.87,-53.06,-56.53
2022/05/08 00:07:08+0000,-31.81,-43.52,-33.59,-48.55,-54.07,-55.38
2022/05/08 00:08:00+0000,-31.74,-43.59,-33.49,-47.98,-53.77,-55.50
2022/05/08 00:08:52+0000,-31.77,-43.15,-33.80,-46.44,-53.51,-55.94
2022/05/08 00:09:44+0000,-31.12,-43.36,-33.71,-47.93,-53.06,-56.08
2022/05/08 00:10:36+0000,-30.23,-43.16,-34.35,-47.76,-53.04,-55.75
2022/05/08 00:11:37+0000,-31.79,-41.90,-34.14,-48.00,-53.53,-55.60
2022/05/08 00:12:29+0000,-29.97,-42.49,-33.70,-47.45,-53.10,-55.89
2022/05/08 00:13:21+0000,-31.72,-43.19,-33.65,-45.37,-54.04,-55.22
2022/05/08 00:14:13+0000,-30.97,-43.45,-33.31,-46.77,-53.00,-55.99
2022/05/08 00:15:05+0000,-30.69,-44.29,-32.84,-48.91,-54.27,-55.46
2022/05/08 00:15:57+0000,-32.29,-43.62,-33.17,-47.92,-54.11,-56.34
2022/05/08 00:16:49+0000,-31.30,-43.58,-33.60,-49.43,-54.66,-56.06
2022/05/08 00:17:41+0000,-32.18,-43.44,-33.05,-47.77,-54.51,-55.82
2022/05/08 00:18:33+0000,-30.61,-43.36,-33.51,-48.69,-54.18,-56.05
2022/05/08 00:19:25+0000,-30.61,-43.90,-33.09,-48.64,-54.83,-56.57
2022/05/08 00:20:17+0000,-32.65,-42.80,-33.40,-48.03,-53.72,-55.86
2022/05/08 00:21:18+0000,-31.62,-41.79,-33.12,-49.13,-54.52,-56.42
2022/05/08 00:22:10+0000,-31.20,-42.91,-32.69,-47.91,-53.53,-55.92
2022/05/08 00:23:02+0000,-29.59,-43.98,-33.20,-48.08,-53.44,-55.75
2022/05/08 00:23:54+0000,-31.62,-42.42,-33.21,-47.92,-54.29,-55.75
2022/05/08 00:24:46+0000,-29.84,-44.84,-32.98,-47.93,-53.54,-56.11
2022/05/08 00:25:38+0000,-32.20,-44.46,-33.33,-47.90,-54.07,-56.16
2022/05/08 00:26:30+0000,-31.18,-44.01,-33.01,-48.58,-54.21,-56.26
2022/05/08 00:27:22+0000,-30.19,-44.54,-33.13,-48.40,-53.87,-56.09
2022/05/08 00:28:14+0000,-28.68,-44.04,-32.83,-47.25,-54.09,-55.56
2022/05/08 00:29:06+0000,-30.19,-43.86,-33.22,-47.64,-53.74,-55.92
2022/05/08 00:29:58+0000,-31.43,-44.07,-32.73,-48.82,-54.18,-56.14
2022/05/08 00:30:50+0000,-28.49,-44.37,-33.08,-49.14,-54.10,-56.44
2022/05/08 00:31:50+0000,-27.94,-44.47,-33.15,-49.47,-53.76,-55.87
2022/05/08 00:32:42+0000,-30.99,-44.78,-32.55,-48.60,-54.51,-55.90
2022/05/08 00:33:34+0000,-30.77,-44.65,-33.13,-50.42,-54.22,-55.87
2022/05/08 00:34:26+0000,-30.71,-44.88,-33.20,-49.31,-54.30,-55.62
2022/05/08 00:35:18+0000,-34.45,-43.22,-33.18,-48.56,-53.90,-56.34
2022/05/08 00:36:10+0000,-34.15,-42.43,-33.09,-48.95,-54.40,-55.84
2022/05/08 00:37:02+0000,-33.60,-42.62,-33.17,-50.12,-54.90,-55.51
2022/05/08 00:37:54+0000,-34.74,-42.05,-32.52,-49.26,-53.75,-55.38
2022/05/08 00:38:46+0000,-33.84,-41.93,-32.97,-48.42,-53.83,-55.58
2022/05/08 00:39:38+0000,-32.06,-41.60,-33.36,-48.61,-53.36,-55.70
2022/05/08 00:40:31+0000,-33.83,-42.98,-33.36,-49.00,-52.74,-55.02
2022/05/08 00:41:31+0000,-33.57,-42.53,-32.71,-48.86,-53.44,-55.39
2022/05/08 00:42:23+0000,-33.05,-42.44,-33.05,-48.62,-53.11,-55.54
2022/05/08 00:43:15+0000,-33.52,-41.32,-32.92,-49.19,-53.27,-55.43
2022/05/08 00:44:07+0000,-33.61,-42.67,-32.60,-49.09,-53.14,-55.80
2022/05/08 00:44:59+0000,-33.88,-41.13,-32.83,-48.27,-52.97,-55.48
2022/05/08 00:45:51+0000,-32.33,-42.84,-32.79,-49.53,-52.43,-54.89
2022/05/08 00:46:43+0000,-32.48,-41.78,-33.20,-48.95,-54.45,-55.56
2022/05/08 00:47:35+0000,-33.30,-41.80,-32.97,-50.33,-52.83,-55.17
2022/05/08 00:48:27+0000,-33.54,-42.85,-32.79,-48.18,-53.35,-55.58
2022/05/08 00:49:19+0000,-34.94,-43.04,-32.84,-48.96,-53.70,-55.22
2022/05/08 00:50:11+0000,-33.41,-43.46,-32.89,-48.23,-54.15,-55.42
2022/05/08 00:51:09+0000,-34.60,-43.52,-33.07,-48.54,-53.50,-55.66
2022/05/08 00:52:01+0000,-32.53,-43.55,-33.30,-48.99,-53.29,-55.18
2022/05/08 00:52:53+0000,-34.00,-42.64,-32.70,-47.52,-53.49,-55.40
2022/05/08 00:53:45+0000,-34.45,-43.36,-34.10,-47.66,-52.88,-55.61
2022/05/08 00:54:37+0000,-33.97,-43.53,-33.45,-46.92,-53.08,-55.69
2022/05/08 00:55:29+0000,-34.77,-43.09,-34.08,-47.31,-53.46,-55.42
2022/05/08 00:56:22+0000,-33.47,-44.39,-33.68,-49.22,-53.36,-55.29
2022/05/08 00:57:14+0000,-32.77,-43.62,-33.77,-48.41,-53.68,-55.73
2022/05/08 00:58:06+0000,-33.97,-42.20,-33.15,-49.74,-53.48,-55.31
2022/05/08 00:58:58+0000,-34.15,-43.69,-33.23,-48.36,-53.76,-55.80
2022/05/08 00:59:50+0000,-32.75,-43.69,-33.73,-47.90,-53.02,-55.93
2022/05/08 01:00:42+0000,-35.02,-43.97,-33.63,-47.70,-54.21,-55.29
2022/05/08 01:01:41+0000,-34.45,-43.04,-33.37,-48.48,-53.52,-56.08
2022/05/08 01:02:33+0000,-33.28,-41.93,-33.47,-50.24,-51.03,-55.81
2022/05/08 01:03:25+0000,-33.37,-42.85,-33.43,-48.53,-53.82,-55.53
2022/05/08 01:04:17+0000,-33.92,-43.19,-33.46,-48.07,-53.97,-55.35
2022/05/08 01:05:09+0000,-33.57,-42.28,-33.46,-47.74,-53.82,-55.93
2022/05/08 01:06:01+0000,-33.58,-41.15,-33.35,-48.94,-51.99,-55.94
2022/05/08 01:06:53+0000,-33.83,-43.33,-33.57,-49.10,-54.27,-55.97
2022/05/08 01:07:45+0000,-33.26,-41.97,-33.61,-49.01,-53.22,-56.37
2022/05/08 01:08:37+0000,-31.80,-42.65,-33.88,-47.94,-53.88,-56.07
2022/05/08 01:09:29+0000,-30.75,-43.28,-33.75,-47.06,-53.55,-55.06
2022/05/08 01:10:21+0000,-33.10,-42.25,-33.56,-47.96,-53.09,-55.69
2022/05/08 01:11:27+0000,-32.48,-42.67,-34.22,-47.85,-54.14,-55.79
2022/05/08 01:12:19+0000,-34.56,-42.51,-32.97,-50.36,-53.08,-55.71
2022/05/08 01:13:11+0000,-32.97,-42.51,-33.60,-49.30,-52.71,-55.98
2022/05/08 01:14:03+0000,-32.53,-42.99,-33.33,-50.55,-53.18,-55.42
2022/05/08 01:14:55+0000,-33.38,-43.49,-33.66,-48.56,-53.72,-55.57
2022/05/08 01:15:47+0000,-32.79,-42.17,-33.66,-48.49,-53.81,-55.49
2022/05/08 01:16:39+0000,-33.33,-44.10,-34.21,-49.79,-53.78,-55.80
2022/05/08 01:17:31+0000,-34.33,-44.00,-33.70,-49.69,-54.35,-55.64
2022/05/08 01:18:23+0000,-33.93,-44.04,-33.62,-49.78,-52.05,-55.72
2022/05/08 01:19:15+0000,-33.75,-44.26,-34.15,-48.67,-53.09,-55.62
2022/05/08 01:20:08+0000,-33.40,-42.96,-34.10,-49.30,-53.31,-56.00
2022/05/08 01:21:06+0000,-34.49,-44.76,-34.21,-49.77,-52.82,-55.27
2022/05/08 01:21:58+0000,-34.08,-42.44,-33.50,-48.42,-54.34,-56.02
2022/05/08 01:22:50+0000,-33.44,-42.25,-33.74,-49.97,-53.42,-55.67
2022/05/08 01:23:42+0000,-33.81,-42.57,-33.72,-47.97,-52.98,-55.42
2022/05/08 01:24:34+0000,-33.98,-42.26,-33.55,-47.99,-53.43,-55.58
2022/05/08 01:25:26+0000,-33.99,-42.68,-33.32,-48.78,-54.08,-55.25
2022/05/08 01:26:18+0000,-35.00,-43.25,-33.36,-48.66,-53.22,-55.25
2022/05/08 01:27:10+0000,-33.38,-42.39,-33.33,-47.48,-54.26,-55.75
2022/05/08 01:28:02+0000,-34.08,-41.69,-33.31,-48.94,-53.37,-55.62
2022/05/08 01:28:54+0000,-34.39,-41.71,-33.81,-47.06,-53.81,-55.58
2022/05/08 01:29:46+0000,-32.37,-42.42,-33.40,-47.49,-54.36,-55.24
2022/05/08 01:30:38+0000,-32.25,-42.95,-33.06,-47.45,-53.55,-55.61
2022/05/08 01:31:37+0000,-33.55,-41.98,-33.25,-46.78,-52.93,-55.59
2022/05/08 01:32:29+0000,-33.44,-42.28,-34.03,-47.49,-54.22,-55.78
2022/05/08 01:33:21+0000,-34.03,-42.09,-33.36,-48.37,-52.87,-55.24
2022/05/08 01:34:13+0000,-33.03,-41.91,-33.12,-48.98,-52.96,-55.55
2022/05/08 01:35:05+0000,-31.48,-42.96,-33.81,-48.95,-54.21,-55.01
2022/05/08 01:35:57+0000,-33.91,-42.88,-33.12,-46.77,-53.33,-55.41
2022/05/08 01:36:49+0000,-34.14,-42.95,-33.65,-48.53,-52.55,-55.15
2022/05/08 01:37:41+0000,-35.20,-42.37,-33.19,-48.03,-54.06,-55.38
2022/05/08 01:38:33+0000,-34.71,-42.78,-33.88,-48.32,-53.58,-55.97
2022/05/08 01:39:25+0000,-32.45,-43.57,-33.27,-47.40,-54.05,-56.26
2022/05/08 01:40:17+0000,-34.57,-42.06,-33.42,-47.75,-52.15,-55.75
2022/05/08 01:41:16+0000,-33.76,-42.61,-33.51,-48.06,-51.53,-55.56
2022/05/08 01:42:08+0000,-34.36,-42.36,-33.48,-48.01,-52.51,-55.76
2022/05/08 01:43:00+0000,-33.91,-42.91,-33.61,-48.03,-54.10,-56.37
2022/05/08 01:43:52+0000,-34.68,-42.37,-33.05,-48.36,-52.73,-55.69
2022/05/08 01:44:44+0000,-34.73,-42.89,-33.78,-47.21,-51.60,-55.34
2022/05/08 01:45:36+0000,-34.06,-43.26,-32.86,-49.49,-53.07,-55.16
2022/05/08 01:46:28+0000,-34.00,-42.93,-33.39,-48.44,-53.59,-55.44
2022/05/08 01:47:20+0000,-34.51,-42.40,-34.14,-49.26,-52.31,-55.36
2022/05/08 01:48:12+0000,-33.87,-42.77,-33.24,-45.99,-54.21,-55.17
2022/05/08 01:49:04+0000,-33.41,-42.22,-33.08,-48.38,-53.69,-55.10
2022/05/08 01:49:56+0000,-32.21,-43.01,-33.84,-47.86,-53.35,-55.18
2022/05/08 01:50:48+0000,-33.25,-42.52,-34.08,-47.66,-53.10,-55.11
2022/05/08 01:51:47+0000,-33.09,-42.54,-33.48,-47.02,-52.45,-55.18
2022/05/08 01:52:39+0000,-33.40,-43.77,-33.28,-47.71,-53.41,-55.44
2022/05/08 01:53:31+0000,-33.79,-42.59,-33.72,-47.70,-52.84,-54.76
2022/05/08 01:54:23+0000,-34.31,-43.75,-33.36,-48.05,-53.20,-54.40
2022/05/08 01:55:15+0000,-34.29,-42.84,-33.68,-47.89,-53.29,-54.68
2022/05/08 01:56:07+0000,-34.04,-43.25,-33.44,-47.49,-52.90,-54.29
2022/05/08 01:56:59+0000,-34.31,-43.01,-33.74,-46.26,-53.22,-55.48
2022/05/08 01:57:51+0000,-34.27,-41.73,-33.55,-48.82,-52.91,-55.23
2022/05/08 01:58:43+0000,-33.99,-42.76,-33.40,-47.28,-52.08,-54.64
2022/05/08 01:59:35+0000,-33.95,-42.64,-33.48,-49.41,-52.34,-54.83
2022/05/08 02:00:27+0000,-33.95,-42.85,-33.95,-46.38,-53.53,-54.63
2022/05/08 02:01:27+0000,-34.42,-43.46,-33.84,-47.94,-52.68,-55.45
2022/05/08 02:02:19+0000,-33.50,-42.20,-34.28,-49.18,-52.97,-54.81
2022/05/08 02:03:11+0000,-34.77,-42.54,-33.58,-47.67,-53.18,-55.44
2022/05/08 02:04:03+0000,-32.19,-43.02,-33.27,-49.43,-52.18,-54.96
2022/05/08 02:04:55+0000,-34.58,-42.43,-33.44,-48.14,-52.95,-55.10
2022/05/08 02:05:47+0000,-34.60,-43.13,-33.62,-48.82,-51.76,-55.05
2022/05/08 02:06:39+0000,-33.38,-43.63,-33.14,-47.68,-53.34,-54.87
2022/05/08 02:07:31+0000,-31.90,-41.93,-33.58,-48.43,-53.13,-55.13
2022/05/08 02:08:23+0000,-34.50,-42.40,-33.84,-48.56,-53.40,-54.75
2022/05/08 02:09:15+0000,-34.84,-41.78,-33.52,-47.68,-52.90,-55.01
2022/05/08 02:10:07+0000,-33.77,-44.14,-33.40,-47.03,-52.91,-55.44
2022/05/08 02:11:06+0000,-34.75,-42.61,-33.61,-47.63,-52.85,-55.27
2022/05/08 02:11:58+0000,-35.13,-42.02,-33.63,-48.57,-52.92,-55.30
2022/05/08 02:12:50+0000,-34.74,-43.55,-33.65,-47.63,-52.78,-55.04
2022/05/08 02:13:42+0000,-34.58,-40.26,-33.32,-48.17,-52.59,-55.61
2022/05/08 02:14:34+0000,-34.92,-41.89,-33.68,-48.90,-53.02,-55.30
2022/05/08 02:15:26+0000,-32.64,-41.27,-33.58,-48.08,-52.73,-55.21
2022/05/08 02:16:18+0000,-34.25,-42.50,-34.00,-50.23,-52.11,-55.68
2022/05/08 02:17:11+0000,-34.80,-42.62,-33.78,-49.36,-53.36,-55.26
2022/05/08 02:18:03+0000,-34.50,-41.79,-33.51,-50.15,-51.72,-54.38
2022/05/08 02:18:55+0000,-34.30,-42.40,-33.81,-49.14,-53.47,-55.12
2022/05/08 02:19:47+0000,-33.65,-42.42,-33.38,-48.94,-51.66,-55.07
2022/05/08 02:20:39+0000,-34.78,-43.00,-33.47,-47.71,-52.10,-55.03
2022/05/08 02:21:44+0000,-33.24,-41.78,-33.69,-48.11,-51.10,-54.50
2022/05/08 02:22:36+0000,-34.86,-42.94,-33.38,-47.35,-52.12,-54.95
2022/05/08 02:23:28+0000,-34.82,-42.87,-33.21,-46.38,-51.83,-55.51
2022/05/08 02:24:20+0000,-33.48,-41.49,-33.74,-47.70,-51.16,-55.45
2022/05/08 02:25:12+0000,-33.71,-41.79,-33.54,-48.23,-50.86,-54.75
2022/05/08 02:26:04+0000,-33.94,-43.23,-33.84,-50.37,-51.82,-54.93
2022/05/08 02:26:56+0000,-34.29,-43.50,-33.79,-48.34,-52.81,-55.44
2022/05/08 02:27:48+0000,-34.22,-44.46,-33.54,-50.79,-51.86,-54.56
2022/05/08 02:28:40+0000,-32.39,-41.78,-33.96,-47.96,-52.55,-54.88
2022/05/08 02:29:32+0000,-33.06,-43.03,-33.19,-44.66,-51.94,-54.98
2022/05/08 02:30:24+0000,-33.21,-41.66,-33.14,-47.61,-53.12,-55.07
2022/05/08 02:31:28+0000,-33.13,-42.26,-33.54,-47.98,-52.15,-55.79
2022/05/08 02:32:20+0000,-33.23,-43.22,-33.98,-50.79,-50.45,-54.54
2022/05/08 02:33:12+0000,-33.52,-41.12,-32.89,-49.04,-51.99,-54.45
2022/05/08 02:34:04+0000,-32.59,-42.64,-32.82,-49.80,-51.65,-54.54
2022/05/08 02:34:56+0000,-33.49,-40.27,-32.72,-44.28,-53.22,-54.95
2022/05/08 02:35:48+0000,-33.95,-42.21,-33.29,-48.83,-52.44,-55.20
2022/05/08 02:36:40+0000,-31.61,-43.26,-33.62,-49.63,-52.59,-54.88
2022/05/08 02:37:32+0000,-33.57,-43.72,-33.74,-45.55,-50.63,-54.66
2022/05/08 02:38:24+0000,-34.44,-41.97,-33.45,-47.32,-50.23,-54.65
2022/05/08 02:39:16+0000,-34.16,-42.75,-33.47,-48.65,-52.58,-54.88
2022/05/08 02:40:08+0000,-34.82,-41.75,-33.90,-49.09,-52.73,-54.06
2022/05/08 02:41:07+0000,-31.45,-43.11,-33.20,-49.71,-51.41,-54.88
2022/05/08 02:41:59+0000,-34.12,-42.80,-33.93,-48.02,-51.11,-55.05
2022/05/08 02:42:51+0000,-33.22,-43.00,-33.17,-48.31,-52.61,-55.17
2022/05/08 02:43:43+0000,-33.41,-42.49,-33.48,-48.28,-51.15,-55.17
2022/05/08 02:44:35+0000,-32.81,-42.54,-33.45,-49.45,-52.83,-55.31
2022/05/08 02:45:27+0000,-33.52,-43.65,-33.92,-46.96,-52.56,-54.40
2022/05/08 02:46:19+0000,-34.57,-42.03,-33.98,-50.90,-52.49,-54.81
2022/05/08 02:47:11+0000,-34.40,-39.64,-33.43,-48.76,-52.71,-54.88
2022/05/08 02:48:03+0000,-31.75,-42.26,-33.77,-47.30,-53.04,-55.15
2022/05/08 02:48:55+0000,-34.07,-42.55,-32.92,-47.83,-52.74,-55.35
2022/05/08 02:49:48+0000,-32.58,-41.30,-33.46,-46.87,-52.62,-55.02
2022/05/08 02:50:40+0000,-33.43,-42.39,-33.47,-45.22,-52.32,-55.33
2022/05/08 02:51:38+0000,-34.22,-44.21,-33.64,-47.29,-51.58,-54.93
2022/05/08 02:52:30+0000,-33.30,-43.54,-33.78,-47.65,-51.95,-55.12
2022/05/08 02:53:22+0000,-33.48,-43.23,-33.69,-48.86,-51.79,-54.76
2022/05/08 02:54:14+0000,-32.66,-43.20,-34.12,-48.70,-52.01,-54.67
2022/05/08 02:55:06+0000,-34.87,-43.29,-33.11,-50.95,-50.39,-55.00
2022/05/08 02:55:58+0000,-34.62,-41.80,-34.04,-49.12,-51.28,-55.34
2022/05/08 02:56:50+0000,-34.88,-42.71,-33.84,-51.55,-51.98,-54.82
2022/05/08 02:57:42+0000,-33.54,-41.75,-33.45,-49.75,-53.05,-54.99
2022/05/08 02:58:34+0000,-32.77,-41.61,-34.25,-50.66,-50.61,-55.23
2022/05/08 02:59:26+0000,-33.70,-43.23,-33.86,-46.84,-53.41,-55.20
2022/05/08 03:00:18+0000,-33.78,-42.95,-33.66,-49.35,-51.50,-55.27
2022/05/08 03:01:25+0000,-34.12,-42.11,-33.60,-47.02,-53.21,-55.08
2022/05/08 03:02:17+0000,-33.87,-41.62,-33.45,-49.61,-50.13,-55.20
2022/05/08 03:03:09+0000,-31.16,-41.42,-33.71,-48.07,-52.77,-55.33
2022/05/08 03:04:01+0000,-32.93,-41.71,-33.95,-45.47,-51.05,-55.27
2022/05/08 03:04:53+0000,-32.66,-42.96,-33.48,-45.54,-49.70,-55.12
2022/05/08 03:05:45+0000,-33.61,-42.55,-33.56,-48.33,-50.41,-54.86
2022/05/08 03:06:37+0000,-33.51,-42.51,-33.67,-48.12,-51.41,-54.53
2022/05/08 03:07:29+0000,-33.52,-41.62,-33.78,-46.93,-52.23,-54.80
2022/05/08 03:08:21+0000,-32.66,-44.07,-33.92,-46.15,-52.41,-55.13
2022/05/08 03:09:13+0000,-33.48,-41.00,-34.21,-48.52,-51.82,-54.62
2022/05/08 03:10:05+0000,-34.38,-43.58,-34.21,-49.11,-52.32,-54.25
2022/05/08 03:11:04+0000,-33.36,-42.39,-33.54,-48.68,-52.04,-55.77
2022/05/08 03:11:56+0000,-35.48,-43.09,-33.63,-47.80,-52.55,-55.08
2022/05/08 03:12:48+0000,-33.56,-43.24,-33.13,-49.68,-52.54,-54.89
2022/05/08 03:13:40+0000,-33.27,-43.13,-32.98,-46.57,-52.89,-55.34
2022/05/08 03:14:32+0000,-33.15,-43.72,-33.03,-47.62,-53.04,-55.13
2022/05/08 03:15:24+0000,-33.64,-42.14,-33.65,-48.43,-52.93,-55.19
2022/05/08 03:16:16+0000,-33.67,-43.90,-34.62,-48.51,-53.36,-54.64
2022/05/08 03:17:08+0000,-33.80,-43.04,-34.07,-47.23,-53.52,-54.79
2022/05/08 03:18:00+0000,-33.18,-42.54,-33.89,-47.61,-52.73,-55.89
2022/05/08 03:18:52+0000,-33.42,-43.44,-33.96,-47.22,-53.02,-54.77
2022/05/08 03:19:44+0000,-34.15,-42.79,-33.84,-47.63,-53.86,-55.84
2022/05/08 03:20:36+0000,-33.14,-44.31,-33.40,-45.56,-53.25,-55.22
2022/05/08 03:21:37+0000,-32.62,-45.19,-33.63,-47.27,-53.03,-54.62
2022/05/08 03:22:29+0000,-33.25,-43.91,-33.41,-46.37,-52.89,-55.01
2022/05/08 03:23:21+0000,-33.83,-45.94,-32.86,-47.46,-53.14,-55.18
2022/05/08 03:24:13+0000,-35.16,-42.59,-33.34,-47.46,-53.27,-55.09
2022/05/08 03:25:05+0000,-33.37,-42.61,-33.65,-49.58,-52.96,-55.68
2022/05/08 03:25:57+0000,-33.52,-43.63,-33.41,-47.51,-53.25,-55.38
2022/05/08 03:26:49+0000,-35.17,-44.00,-32.90,-48.10,-53.77,-54.85
2022/05/08 03:27:41+0000,-32.40,-44.10,-33.79,-47.63,-52.99,-55.58
2022/05/08 03:28:33+0000,-33.28,-44.59,-33.13,-46.50,-53.42,-54.91
2022/05/08 03:29:25+0000,-32.15,-44.23,-32.88,-46.41,-53.46,-55.29
2022/05/08 03:30:17+0000,-33.48,-42.58,-33.10,-45.77,-52.63,-55.23
2022/05/08 03:31:15+0000,-34.75,-41.80,-33.14,-46.41,-53.39,-54.74
2022/05/08 03:32:07+0000,-33.90,-43.08,-33.42,-46.87,-53.74,-55.60
2022/05/08 03:32:59+0000,-33.60,-43.67,-33.24,-46.83,-53.19,-55.22
2022/05/08 03:33:51+0000,-35.07,-43.98,-32.42,-46.34,-53.26,-55.68
2022/05/08 03:34:43+0000,-33.12,-42.76,-33.22,-45.58,-53.49,-55.15
2022/05/08 03:35:36+0000,-33.39,-44.25,-33.42,-46.72,-53.21,-55.14
2022/05/08 03:36:28+0000,-34.74,-42.73,-33.27,-48.46,-53.81,-55.19
2022/05/08 03:37:20+0000,-33.58,-43.34,-33.73,-49.50,-53.34,-55.04
2022/05/08 03:38:12+0000,-33.17,-45.01,-33.39,-47.85,-53.56,-55.11
2022/05/08 03:39:04+0000,-35.01,-41.90,-33.59,-48.82,-54.10,-54.99
2022/05/08 03:39:56+0000,-33.14,-41.12,-33.22,-47.45,-53.53,-54.91
2022/05/08 03:40:48+0000,-33.24,-40.12,-33.02,-46.10,-53.34,-54.73
2022/05/08 03:41:46+0000,-33.79,-41.76,-33.10,-45.84,-52.86,-55.32
2022/05/08 03:42:38+0000,-34.72,-42.09,-33.41,-46.87,-53.73,-55.47
2022/05/08 03:43:30+0000,-34.76,-41.66,-32.75,-47.66,-53.40,-55.45
2022/05/08 03:44:22+0000,-33.23,-42.88,-33.80,-48.07,-53.67,-54.95
2022/05/08 03:45:14+0000,-34.92,-40.66,-33.62,-46.23,-53.66,-55.02
2022/05/08 03:46:06+0000,-33.48,-41.40,-32.67,-45.94,-53.36,-54.87
2022/05/08 03:46:58+0000,-35.35,-40.74,-33.53,-48.45,-53.75,-55.37
2022/05/08 03:47:50+0000,-33.62,-39.30,-32.82,-49.45,-53.60,-55.22
2022/05/08 03:48:42+0000,-33.80,-40.29,-33.31,-46.17,-53.52,-55.94
2022/05/08 03:49:34+0000,-33.67,-40.85,-33.07,-50.14,-53.64,-55.09
2022/05/08 03:50:27+0000,-34.08,-39.95,-33.04,-47.95,-53.13,-55.16
2022/05/08 03:51:27+0000,-34.65,-40.41,-33.32,-46.90,-54.08,-55.55
2022/05/08 03:52:19+0000,-33.26,-41.64,-32.73,-49.28,-53.58,-55.21
2022/05/08 03:53:11+0000,-34.37,-41.32,-33.47,-45.09,-53.83,-55.53
2022/05/08 03:54:03+0000,-33.98,-40.58,-33.47,-46.16,-54.05,-55.34
2022/05/08 03:54:55+0000,-33.43,-40.47,-32.94,-46.13,-53.85,-55.06
2022/05/08 03:55:47+0000,-33.92,-41.60,-32.77,-46.22,-54.16,-55.17
2022/05/08 03:56:39+0000,-34.80,-42.41,-33.52,-45.27,-53.18,-55.97
2022/05/08 03:57:31+0000,-33.94,-41.95,-32.88,-47.52,-53.75,-55.31
2022/05/08 03:58:23+0000,-33.07,-41.85,-32.95,-47.92,-53.61,-55.67
2022/05/08 03:59:15+0000,-33.83,-41.72,-33.38,-46.93,-53.33,-55.29
2022/05/08 04:00:08+0000,-34.11,-42.81,-33.60,-46.99,-53.59,-55.27
2022/05/08 04:01:06+0000,-33.09,-43.07,-33.46,-46.75,-53.82,-55.44
2022/05/08 04:01:58+0000,-34.25,-40.57,-33.19,-46.17,-52.92,-54.70
2022/05/08 04:02:50+0000,-33.60,-40.61,-32.92,-45.61,-53.14,-55.02
2022/05/08 04:03:42+0000,-32.42,-41.57,-32.80,-45.69,-53.19,-55.68
2022/05/08 04:04:34+0000,-34.54,-41.00,-32.70,-47.03,-53.57,-54.65
2022/05/08 04:05:26+0000,-33.80,-40.85,-33.17,-46.50,-53.62,-54.69
2022/05/08 04:06:18+0000,-33.66,-41.11,-33.53,-49.64,-53.58,-54.75
2022/05/08 04:07:11+0000,-33.16,-40.69,-33.28,-47.16,-53.23,-55.07
2022/05/08 04:08:03+0000,-33.68,-40.81,-33.13,-48.52,-53.40,-54.78
2022/05/08 04:08:55+0000,-33.97,-40.05,-33.65,-45.07,-53.53,-54.78
2022/05/08 04:09:47+0000,-33.38,-40.27,-33.66,-47.57,-53.88,-54.82
2022/05/08 04:10:39+0000,-34.22,-41.28,-33.44,-47.81,-53.31,-55.36
2022/05/08 04:11:44+0000,-33.71,-41.45,-33.57,-46.02,-53.40,-54.30
2022/05/08 04:12:36+0000,-33.16,-42.33,-32.73,-46.29,-54.05,-54.30
2022/05/08 04:13:28+0000,-33.54,-39.43,-33.53,-47.29,-53.38,-54.49
2022/05/08 04:14:20+0000,-33.04,-42.94,-32.44,-48.17,-54.28,-54.48
2022/05/08 04:15:12+0000,-34.58,-42.45,-33.32,-47.46,-54.14,-54.68
2022/05/08 04:16:04+0000,-33.60,-40.22,-33.38,-49.22,-54.22,-54.92
2022/05/08 04:16:56+0000,-34.11,-40.38,-33.28,-46.43,-53.22,-55.02
2022/05/08 04:17:48+0000,-33.55,-41.09,-33.31,-48.57,-54.29,-54.69
2022/05/08 04:18:40+0000,-33.51,-42.15,-33.16,-47.40,-53.74,-54.64
2022/05/08 04:19:32+0000,-32.64,-40.67,-33.35,-47.09,-54.26,-54.50
2022/05/08 04:20:24+0000,-33.86,-40.48,-33.75,-47.13,-53.86,-54.80
2022/05/08 04:21:24+0000,-33.45,-39.60,-33.61,-46.42,-53.36,-54.13
2022/05/08 04:22:17+0000,-34.10,-42.22,-32.71,-45.48,-53.33,-54.48
2022/05/08 04:23:09+0000,-32.83,-42.01,-33.09,-46.74,-53.21,-54.03
2022/05/08 04:24:01+0000,-33.36,-40.50,-33.21,-45.27,-53.90,-54.49
2022/05/08 04:24:53+0000,-34.61,-41.81,-33.69,-46.84,-53.64,-54.91
2022/05/08 04:25:45+0000,-33.53,-41.48,-33.68,-46.63,-53.93,-54.14
2022/05/08 04:26:37+0000,-33.68,-42.08,-33.31,-46.13,-53.78,-53.96
2022/05/08 04:27:29+0000,-33.85,-40.23,-33.71,-45.75,-54.07,-54.33
2022/05/08 04:28:21+0000,-33.02,-41.81,-33.94,-47.14,-53.78,-54.21
2022/05/08 04:29:13+0000,-32.92,-41.21,-33.37,-46.94,-53.30,-54.68
2022/05/08 04:30:05+0000,-32.93,-39.13,-33.89,-48.89,-54.13,-54.57
2022/05/08 04:31:06+0000,-33.30,-41.75,-33.55,-44.93,-54.13,-54.34
2022/05/08 04:31:58+0000,-33.98,-39.33,-33.46,-46.91,-52.99,-54.56
2022/05/08 04:32:50+0000,-33.92,-40.12,-32.85,-48.85,-54.19,-54.14
2022/05/08 04:33:42+0000,-33.33,-40.84,-33.66,-46.73,-54.06,-54.28
2022/05/08 04:34:34+0000,-33.28,-40.70,-33.92,-49.48,-53.66,-54.45
2022/05/08 04:35:26+0000,-32.01,-39.93,-33.57,-47.79,-54.38,-54.42
2022/05/08 04:36:18+0000,-34.23,-39.96,-32.99,-45.74,-53.49,-54.48
2022/05/08 04:37:10+0000,-35.04,-40.61,-33.32,-46.22,-54.43,-54.08
2022/05/08 04:38:02+0000,-30.93,-40.41,-33.28,-47.63,-53.78,-54.83
2022/05/08 04:38:54+0000,-29.28,-41.27,-33.37,-48.32,-52.79,-54.99
2022/05/08 04:39:46+0000,-31.62,-41.40,-32.79,-45.84,-53.65,-54.63
2022/05/08 04:40:38+0000,-30.24,-42.20,-32.79,-46.72,-53.95,-54.57
2022/05/08 04:41:38+0000,-30.35,-41.88,-33.80,-44.89,-53.74,-55.06
2022/05/08 04:42:30+0000,-30.47,-42.00,-32.92,-46.68,-54.32,-54.56
2022/05/08 04:43:22+0000,-26.73,-42.37,-32.78,-47.83,-53.95,-54.75
2022/05/08 04:44:14+0000,-29.93,-41.27,-33.43,-45.96,-53.55,-55.23
2022/05/08 04:45:06+0000,-31.21,-42.21,-32.95,-46.08,-53.78,-54.71